Mayfld Grav Cnty AP, Mayfield, KY

1:44 PM CDT on September 15, 2019 (GMT -0500)
Mayfld Grav Cnty AP, Mayfield

Weather History for KM25 - August, 2019

Change the Weather History Date:

Sunday, August 25, 2019

  Actual Average (KPAH) Record (KPAH)
Temperature  
Mean Temperature 75 °F -  
Max Temperature 82 °F 88 °F 103 °F (1943)
Min Temperature 68 °F 65 °F 52 °F (2015)
Cooling Degree Days 10    
Growing Degree Days 25 (Base 50)    
Moisture  
Dew Point 68 °F    
Average Humidity 85    
Maximum Humidity 100    
Minimum Humidity 70    
Precipitation  
Precipitation 0.21 in - - ()
Sea Level Pressure  
Sea Level Pressure 29.97 in    
Wind  
Wind Speed 4 mph (East)    
Max Wind Speed 10 mph    
Max Gust Speed 16 mph    
Visibility 10 miles    
Events      
Averages and records for this station are not official NWS values.
T = Trace of Precipitation, MM = Missing Value Source: NWS Daily Summary

Daily Weather History Graph

Daily Weather History Graph

Search for Another Location

Airport or City:

Astronomy

Aug. 25, 2019 Rise Set
Actual Time 6:19 AM CDT 7:32 PM CDT
Civil Twilight 5:52 AM CDT 7:59 PM CDT
Nautical Twilight 5:20 AM CDT 8:31 PM CDT
Astronomical Twilight 4:47 AM CDT 9:04 PM CDT
Moon 12:58 AM CDT (8/25) 3:48 PM CDT (8/25)
Length of Visible Light 14h 06m
Length of Day
13h 13m
Waning Crescent, 29% of the Moon is Illuminated
Aug 25
Waning Crescent
Aug 30
New
Sep 5
First Quarter
Sep 13
Full
Sep 21
Last Quarter

Hourly Weather History & Observations

Time (CDT) Temp. Heat Index Dew Point Humidity Pressure Visibility Wind Dir Wind Speed Gust Speed Precip Events Conditions
12:15 AM 68.0 °F - 62.6 °F 83% 30.06 in 10.0 mi NE 3.5 mph - N/A   Mostly Cloudy
12:35 AM 68.0 °F - 62.6 °F 83% 30.06 in 10.0 mi NE 4.6 mph - N/A   Scattered Clouds
12:55 AM 68.0 °F - 62.6 °F 83% 30.05 in 10.0 mi NE 5.8 mph - N/A   Clear
1:15 AM 68.0 °F - 62.6 °F 83% 30.05 in 10.0 mi NE 4.6 mph - N/A   Clear
1:35 AM 68.0 °F - 62.6 °F 83% 30.03 in 10.0 mi NE 4.6 mph - N/A   Clear
1:55 AM 68.0 °F - 62.6 °F 83% 30.03 in 10.0 mi NNE 4.6 mph - N/A   Clear
2:15 AM 68.0 °F - 62.6 °F 83% 30.02 in 10.0 mi ENE 4.6 mph - N/A   Clear
2:35 AM 68.0 °F - 62.6 °F 83% 30.02 in 10.0 mi ENE 3.5 mph - N/A   Scattered Clouds
2:55 AM 68.0 °F - 62.6 °F 83% 30.01 in 10.0 mi East 3.5 mph - N/A   Overcast
3:15 AM 68.0 °F - 62.6 °F 83% 30.01 in 10.0 mi NE 3.5 mph - N/A   Mostly Cloudy
3:35 AM 68.0 °F - 62.6 °F 83% 30.01 in 10.0 mi NE 3.5 mph - N/A   Overcast
3:55 AM 68.0 °F - 62.6 °F 83% 30.01 in 10.0 mi Calm Calm - N/A   Overcast
4:15 AM 68.0 °F - 62.6 °F 83% 30.00 in 10.0 mi ENE 3.5 mph - N/A   Scattered Clouds
4:35 AM 68.0 °F - 62.6 °F 83% 30.01 in 10.0 mi ENE 3.5 mph - N/A   Clear
4:55 AM 68.0 °F - 62.6 °F 83% 30.00 in 10.0 mi Calm Calm - N/A   Scattered Clouds
5:15 AM 68.0 °F - 62.6 °F 83% 30.00 in 10.0 mi NE 3.5 mph - N/A   Scattered Clouds
5:35 AM 68.0 °F - 62.6 °F 83% 30.00 in 10.0 mi Calm Calm - N/A   Scattered Clouds
5:55 AM 68.0 °F - 62.6 °F 83% 30.01 in 10.0 mi NE 3.5 mph - N/A   Mostly Cloudy
6:35 AM 68.0 °F - 62.6 °F 83% 30.01 in 10.0 mi NE 3.5 mph - N/A   Mostly Cloudy
6:55 AM 68.0 °F - 62.6 °F 83% 30.01 in 10.0 mi NE 3.5 mph - N/A   Overcast
7:35 AM 68.0 °F - 62.6 °F 83% 30.01 in 10.0 mi ENE 5.8 mph - N/A   Overcast
7:55 AM 68.0 °F - 62.6 °F 83% 30.01 in 10.0 mi ENE 4.6 mph - N/A   Overcast
8:15 AM 69.8 °F - 62.6 °F 78% 30.01 in 10.0 mi East 4.6 mph - N/A   Scattered Clouds
8:55 AM 69.8 °F - 62.6 °F 78% 30.01 in 10.0 mi ESE 3.5 mph - N/A   Mostly Cloudy
9:15 AM 71.6 °F - 62.6 °F 73% 30.01 in 10.0 mi East 4.6 mph - N/A   Scattered Clouds
9:35 AM 71.6 °F - 64.4 °F 78% 30.01 in 10.0 mi Calm Calm - N/A   Scattered Clouds
9:55 AM 73.4 °F - 64.4 °F 73% 30.01 in 10.0 mi ESE 3.5 mph - N/A   Mostly Cloudy
10:15 AM 75.2 °F - 66.2 °F 73% 30.01 in 10.0 mi ENE 4.6 mph - N/A   Mostly Cloudy
10:35 AM 77.0 °F - 68.0 °F 74% 30.01 in 10.0 mi East 5.8 mph - N/A   Mostly Cloudy
10:55 AM 77.0 °F - 68.0 °F 74% 30.01 in 10.0 mi East 3.5 mph - N/A   Overcast
11:15 AM 78.8 °F - 69.8 °F 74% 30.00 in 10.0 mi East 3.5 mph - N/A   Scattered Clouds
11:35 AM 78.8 °F - 69.8 °F 74% 30.00 in 10.0 mi ENE 4.6 mph - N/A   Mostly Cloudy
11:55 AM 80.6 °F 83.9 °F 69.8 °F 70% 30.00 in 10.0 mi Calm Calm - N/A   Overcast
12:15 PM 80.6 °F 84.6 °F 71.6 °F 74% 29.99 in 10.0 mi NNE 3.5 mph - N/A   Overcast
12:35 PM 80.6 °F 84.6 °F 71.6 °F 74% 29.99 in 10.0 mi NNE 4.6 mph - N/A   Overcast
12:55 PM 80.6 °F 84.6 °F 71.6 °F 74% 29.98 in 10.0 mi Calm Calm - N/A   Mostly Cloudy
1:35 PM 80.6 °F 84.6 °F 71.6 °F 74% 29.97 in 10.0 mi NE 4.6 mph - N/A   Overcast
1:55 PM 78.8 °F - 71.6 °F 78% 29.97 in 10.0 mi NE 4.6 mph - N/A   Overcast
2:15 PM 82.4 °F 88.2 °F 73.4 °F 74% 29.95 in 10.0 mi NE 8.1 mph - N/A   Scattered Clouds
2:35 PM 78.8 °F - 69.8 °F 74% 29.94 in 10.0 mi NE 3.5 mph - N/A   Scattered Clouds
2:55 PM 78.8 °F - 71.6 °F 78% 29.93 in 10.0 mi NNW 5.8 mph - N/A   Mostly Cloudy
3:35 PM 80.6 °F 85.4 °F 73.4 °F 79% 29.92 in 10.0 mi NE 6.9 mph - N/A   Clear
3:55 PM 80.6 °F 85.4 °F 73.4 °F 79% 29.92 in 10.0 mi ENE 5.8 mph - N/A   Mostly Cloudy
4:15 PM 77.0 °F - 71.6 °F 83% 29.93 in 10.0 mi SSE 8.1 mph - N/A   Overcast
4:35 PM 73.4 °F - 71.6 °F 94% 29.92 in 0.8 mi SE 4.6 mph - 0.09 in   Overcast
4:55 PM 73.4 °F - 71.6 °F 94% 29.93 in 2.5 mi SE 3.5 mph - 0.13 in   Overcast
5:15 PM 73.4 °F - 71.6 °F 94% 29.92 in 7.0 mi East 3.5 mph - 0.01 in   Mostly Cloudy
5:35 PM 71.6 °F - 71.6 °F 100% 29.92 in 10.0 mi Calm Calm - 0.01 in   Mostly Cloudy
5:55 PM 73.4 °F - 69.8 °F 88% 29.91 in 10.0 mi ENE 4.6 mph - 0.01 in   Scattered Clouds
6:15 PM 71.6 °F - 71.6 °F 100% 29.93 in 10.0 mi ESE 4.6 mph - N/A   Mostly Cloudy
6:35 PM 71.6 °F - 71.6 °F 100% 29.92 in 3.0 mi East 3.5 mph - 0.02 in   Mostly Cloudy
6:55 PM 71.6 °F - 71.6 °F 100% 29.92 in 5.0 mi ESE 3.5 mph - 0.05 in   Overcast
7:15 PM 71.6 °F - 71.6 °F 100% 29.92 in 10.0 mi Calm Calm - 0.01 in   Mostly Cloudy
7:35 PM 71.6 °F - 71.6 °F 100% 29.93 in 10.0 mi Calm Calm - 0.01 in   Scattered Clouds
7:55 PM 71.6 °F - 71.6 °F 100% 29.93 in 10.0 mi ESE 3.5 mph - 0.01 in   Scattered Clouds
8:15 PM 71.6 °F - 71.6 °F 100% 29.93 in 10.0 mi ESE 4.6 mph - N/A   Scattered Clouds
8:55 PM 71.6 °F - 71.6 °F 100% 29.92 in 10.0 mi ESE 5.8 mph - 0.01 in   Scattered Clouds
9:15 PM 71.6 °F - 71.6 °F 100% 29.92 in 10.0 mi SE 5.8 mph - N/A   Mostly Cloudy
9:35 PM 71.6 °F - 71.6 °F 100% 29.93 in 10.0 mi SE 6.9 mph - N/A   Overcast
9:55 PM 71.6 °F - 71.6 °F 100% 29.92 in 10.0 mi SSE 8.1 mph - N/A   Overcast
10:15 PM 71.6 °F - 71.6 °F 100% 29.93 in 10.0 mi South 9.2 mph - N/A   Mostly Cloudy
10:35 PM 71.6 °F - 69.8 °F 94% 29.93 in 10.0 mi South 9.2 mph - N/A   Overcast
10:55 PM 71.6 °F - 69.8 °F 94% 29.92 in 10.0 mi South 9.2 mph 16.1 mph N/A   Overcast
11:15 PM 71.6 °F - 69.8 °F 94% 29.92 in 10.0 mi South 10.4 mph - N/A   Overcast
11:35 PM 71.6 °F - 69.8 °F 94% 29.91 in 10.0 mi South 8.1 mph - N/A   Scattered Clouds